contact:dominique.lefevre@mio.osupytheas.fr, maurice.libes@osupytheas.fr, didier.mallarino@osupytheas.fr
Project:EMSO http://www.emso-fr.org/EMSO-France
Depth: 2436.0 m
Title:EMSO Ligure Ouest : Data MII capteur AQUADOPP
Date,Latitude,Longitude,X_East,Y_North,Z_Up,Amplitude_X,Amplitude_Y,Amplitude_Z,Batterie,SoundSpeed,Heading,Pitch,Roll,Pressure,TIS,Speed,Direction
, degrees North, degrees East, m.s-1, m.s-1,m.s-1, 1, 1, 1, Volt, m.s-1, degree, degree, degree, dbar, degree_C, m.s-1, degree
2023-02-27T00:04:03,42.805,6.029,-0.031,0.03,0.002,106.0,105.0,104.0,13.4,1505.2,330.3,-0.8,1.8,2471.273,13.28,0.043,314.1
2023-02-27T00:07:03,42.805,6.029,-0.023,0.001,0.0,107.0,109.0,105.0,13.4,1505.2,332.5,-0.8,1.8,2471.299,13.29,0.023,272.5
2023-02-27T00:10:03,42.805,6.029,-0.053,0.022,-0.025,106.0,105.0,105.0,13.4,1505.2,325.5,-0.8,1.8,2471.254,13.29,0.057,292.5
2023-02-27T00:13:03,42.805,6.029,-0.026,0.005,-0.016,106.0,107.0,104.0,13.4,1505.2,320.7,-0.8,1.8,2471.242,13.29,0.026,280.9
2023-02-27T00:16:03,42.805,6.029,-0.021,0.023,-0.018,108.0,106.0,104.0,13.4,1505.2,323.6,-0.7,1.9,2471.238,13.29,0.031,317.6
2023-02-27T00:19:03,42.805,6.029,-0.043,0.035,-0.031,107.0,104.0,106.0,13.4,1505.2,329.3,-0.8,1.8,2471.257,13.29,0.055,309.1
2023-02-27T00:22:03,42.805,6.029,-0.019,0.016,-0.026,107.0,106.0,104.0,13.4,1505.2,332.1,-0.7,1.8,2471.256,13.29,0.024,310.1
2023-02-27T00:25:03,42.805,6.029,-0.005,0.018,0.004,106.0,106.0,105.0,13.4,1505.2,322.9,-0.7,1.8,2471.266,13.29,0.018,344.5
2023-02-27T00:28:03,42.805,6.029,-0.02,0.031,-0.014,105.0,106.0,104.0,13.4,1505.2,334.2,-0.8,1.8,2471.241,13.29,0.036,327.2
2023-02-27T00:31:03,42.805,6.029,-0.035,0.013,-0.034,106.0,105.0,104.0,13.4,1505.2,319.4,-0.7,1.8,2471.246,13.29,0.037,290.4
2023-02-27T00:34:03,42.805,6.029,-0.04,0.024,-0.008,107.0,106.0,103.0,13.4,1505.2,322.0,-0.8,1.8,2471.232,13.29,0.046,301.0
2023-02-27T00:37:03,42.805,6.029,-0.032,0.027,-0.023,106.0,106.0,105.0,13.4,1505.2,326.3,-0.8,1.8,2471.243,13.29,0.041,310.2
2023-02-27T00:40:03,42.805,6.029,-0.038,0.0,-0.014,106.0,106.0,104.0,13.4,1505.2,327.0,-0.8,1.8,2471.263,13.29,0.038,270.0
2023-02-27T00:43:03,42.805,6.029,-0.052,-0.002,-0.043,109.0,104.0,105.0,13.4,1505.2,316.6,-0.7,1.8,2471.258,13.29,0.052,267.8
2023-02-27T00:46:03,42.805,6.029,-0.045,0.006,-0.01,106.0,106.0,103.0,13.4,1505.2,327.7,-0.8,1.8,2471.243,13.29,0.045,277.6
2023-02-27T00:49:03,42.805,6.029,-0.006,0.028,0.009,105.0,105.0,103.0,13.4,1505.2,336.6,-0.8,1.8,2471.255,13.29,0.028,347.9
2023-02-27T00:52:03,42.805,6.029,-0.031,0.025,-0.014,106.0,104.0,103.0,13.3,1505.2,340.0,-0.8,1.8,2471.242,13.29,0.039,308.9
2023-02-27T00:55:03,42.805,6.029,-0.026,0.023,-0.015,105.0,105.0,103.0,13.4,1505.2,317.4,-0.8,1.8,2471.207,13.29,0.034,311.5
2023-02-27T00:58:03,42.805,6.029,-0.036,0.011,0.0,106.0,104.0,103.0,13.3,1505.2,315.5,-0.8,1.8,2471.236,13.29,0.037,287.0
2023-02-27T01:04:03,42.805,6.029,-0.04,0.006,-0.084,107.0,107.0,106.0,13.4,1505.2,326.8,-0.8,1.8,2471.306,13.28,0.04,278.5
2023-02-27T01:07:03,42.805,6.029,-0.036,0.025,-0.021,105.0,104.0,103.0,13.4,1505.2,330.4,-0.8,1.8,2471.292,13.29,0.043,304.8
2023-02-27T01:10:03,42.805,6.029,-0.018,0.014,0.007,106.0,104.0,103.0,13.4,1505.2,329.0,-0.8,1.8,2471.28,13.29,0.022,307.9
2023-02-27T01:13:03,42.805,6.029,-0.02,0.028,-0.005,104.0,105.0,103.0,13.4,1505.2,323.1,-0.8,1.8,2471.268,13.29,0.034,324.5
2023-02-27T01:16:03,42.805,6.029,-0.023,0.026,-0.012,104.0,106.0,103.0,13.3,1505.2,329.8,-0.8,1.8,2471.223,13.29,0.034,318.5
2023-02-27T01:19:03,42.805,6.029,-0.028,0.035,0.018,105.0,104.0,103.0,13.4,1505.2,330.6,-0.8,1.8,2471.209,13.29,0.044,321.3
2023-02-27T01:22:03,42.805,6.029,-0.036,0.024,-0.033,106.0,104.0,103.0,13.4,1505.2,337.2,-0.8,1.8,2471.217,13.29,0.043,303.7
2023-02-27T01:25:03,42.805,6.029,-0.032,0.024,-0.022,106.0,106.0,103.0,13.3,1505.2,321.0,-0.8,1.8,2471.243,13.29,0.04,306.9
2023-02-27T01:28:03,42.805,6.029,-0.042,0.009,-0.036,106.0,105.0,103.0,13.3,1505.2,327.1,-0.8,1.8,2471.223,13.29,0.042,282.1
2023-02-27T01:31:03,42.805,6.029,-0.054,0.017,-0.026,105.0,104.0,103.0,13.3,1505.2,322.6,-0.8,1.8,2471.231,13.29,0.056,287.5
2023-02-27T01:34:03,42.805,6.029,-0.046,0.002,-0.016,105.0,105.0,102.0,13.4,1505.2,317.4,-0.8,1.8,2471.256,13.29,0.046,272.5
2023-02-27T01:37:03,42.805,6.029,-0.017,0.015,0.008,106.0,105.0,105.0,13.4,1505.2,320.9,-0.8,1.8,2471.246,13.29,0.022,311.4
2023-02-27T01:40:03,42.805,6.029,-0.018,0.009,-0.002,108.0,105.0,103.0,13.3,1505.2,322.0,-0.7,1.8,2471.195,13.29,0.02,296.6
2023-02-27T01:43:03,42.805,6.029,-0.023,0.018,-0.037,106.0,105.0,104.0,13.4,1505.2,326.8,-0.8,1.8,2471.229,13.29,0.029,308.0
2023-02-27T01:46:03,42.805,6.029,-0.021,0.001,-0.025,106.0,105.0,102.0,13.4,1505.2,317.5,-0.7,1.8,2471.234,13.29,0.021,272.7
2023-02-27T01:49:03,42.805,6.029,-0.019,0.015,-0.052,105.0,107.0,104.0,13.4,1505.2,333.4,-0.8,1.8,2471.252,13.29,0.024,308.3
2023-02-27T01:52:03,42.805,6.029,-0.041,0.014,-0.03,105.0,103.0,103.0,13.3,1505.2,327.4,-0.8,1.8,2471.196,13.29,0.043,288.9
2023-02-27T01:55:03,42.805,6.029,-0.025,0.011,0.0,104.0,104.0,104.0,13.3,1505.2,315.5,-0.8,1.8,2471.26,13.29,0.027,293.7
2023-02-27T01:58:03,42.805,6.029,-0.032,0.007,-0.017,105.0,106.0,103.0,13.3,1505.2,317.5,-0.8,1.8,2471.203,13.29,0.032,282.3
2023-02-27T02:01:03,42.805,6.029,0.0,0.027,-0.034,105.0,106.0,102.0,13.3,1505.2,332.5,-0.8,1.8,2471.236,13.29,0.026,0.0
2023-02-27T02:04:03,42.805,6.029,-0.037,0.018,-0.029,105.0,106.0,105.0,13.4,1505.2,333.9,-0.8,1.8,2471.201,13.29,0.041,295.9
2023-02-27T02:07:03,42.805,6.029,-0.022,0.035,0.01,105.0,105.0,103.0,13.4,1505.2,339.7,-0.8,1.8,2471.234,13.29,0.041,327.8
2023-02-27T02:10:03,42.805,6.029,-0.013,0.011,-0.03,106.0,104.0,105.0,13.3,1505.2,325.0,-0.7,1.9,2471.187,13.29,0.017,310.2
2023-02-27T02:13:03,42.805,6.029,-0.045,0.028,0.0,104.0,105.0,103.0,13.4,1505.2,320.8,-0.7,1.8,2471.219,13.29,0.053,301.9
2023-02-27T02:16:03,42.805,6.029,-0.026,0.025,-0.018,104.0,105.0,103.0,13.4,1505.2,317.7,-0.7,1.8,2471.2,13.29,0.036,313.9
2023-02-27T02:19:03,42.805,6.029,-0.024,0.001,-0.022,105.0,105.0,102.0,13.3,1505.2,318.6,-0.8,1.8,2471.228,13.29,0.024,272.4
2023-02-27T02:22:03,42.805,6.029,-0.022,0.013,0.004,106.0,105.0,105.0,13.3,1505.2,322.1,-0.8,1.8,2471.232,13.29,0.025,300.6
2023-02-27T02:25:03,42.805,6.029,-0.03,0.016,-0.006,105.0,104.0,104.0,13.4,1505.2,322.7,-0.8,1.8,2471.239,13.29,0.034,298.1
2023-02-27T02:28:03,42.805,6.029,-0.013,0.04,-0.006,106.0,104.0,103.0,13.3,1505.2,337.8,-0.8,1.8,2471.2,13.29,0.042,342.0
2023-02-27T02:31:03,42.805,6.029,-0.016,0.004,-0.042,105.0,105.0,103.0,13.3,1505.2,329.8,-0.8,1.8,2471.207,13.29,0.016,284.0
2023-02-27T02:34:03,42.805,6.029,-0.023,0.004,-0.027,104.0,104.0,104.0,13.4,1505.2,324.3,-0.7,1.8,2471.222,13.29,0.023,279.9
2023-02-27T02:37:03,42.805,6.029,-0.013,0.0,-0.015,105.0,104.0,103.0,13.3,1505.2,317.8,-0.8,1.8,2471.229,13.29,0.013,270.0
2023-02-27T02:40:03,42.805,6.029,-0.02,0.02,-0.007,106.0,105.0,104.0,13.4,1505.2,330.2,-0.8,1.8,2471.205,13.29,0.028,315.0
2023-02-27T02:43:03,42.805,6.029,0.007,-0.001,-0.014,105.0,106.0,104.0,13.4,1505.2,331.1,-0.8,1.8,2471.184,13.29,0.007,98.1
2023-02-27T02:46:03,42.805,6.029,-0.021,0.014,-0.013,107.0,105.0,105.0,13.3,1505.2,336.8,-0.8,1.8,2471.218,13.29,0.025,303.7
2023-02-27T02:49:03,42.805,6.029,-0.025,0.009,-0.009,105.0,105.0,103.0,13.4,1505.2,321.2,-0.8,1.8,2471.194,13.29,0.026,289.8
2023-02-27T02:52:03,42.805,6.029,-0.02,0.017,-0.014,108.0,106.0,103.0,13.4,1505.2,328.8,-0.8,1.8,2471.228,13.29,0.026,310.4
2023-02-27T02:55:03,42.805,6.029,-0.008,0.0,-0.001,106.0,106.0,104.0,13.3,1505.2,323.1,-0.8,1.8,2471.254,13.29,0.008,270.0
2023-02-27T02:58:03,42.805,6.029,-0.018,0.013,-0.011,105.0,107.0,104.0,13.4,1505.2,336.6,-0.7,1.8,2471.193,13.29,0.022,305.8
2023-02-27T03:04:03,42.805,6.029,-0.013,0.023,-0.028,107.0,104.0,103.0,13.4,1505.2,323.9,-0.8,1.8,2471.231,13.29,0.026,330.5
2023-02-27T03:07:03,42.805,6.029,-0.018,0.01,-0.033,106.0,104.0,103.0,13.4,1505.2,330.5,-0.7,1.8,2471.27,13.29,0.02,299.1
2023-02-27T03:10:03,42.805,6.029,-0.024,0.023,-0.015,106.0,105.0,103.0,13.4,1505.2,328.8,-0.7,1.8,2471.25,13.29,0.033,313.8
2023-02-27T03:13:03,42.805,6.029,-0.014,0.03,-0.02,107.0,107.0,102.0,13.4,1505.2,331.0,-0.8,1.8,2471.223,13.29,0.033,335.0
2023-02-27T03:16:03,42.805,6.029,-0.041,0.009,-0.006,105.0,104.0,103.0,13.4,1505.2,314.4,-0.7,1.8,2471.252,13.29,0.041,282.4
2023-02-27T03:19:03,42.805,6.029,-0.034,0.011,-0.026,104.0,103.0,105.0,13.4,1505.2,332.5,-0.8,1.8,2471.227,13.29,0.035,287.9
2023-02-27T03:22:03,42.805,6.029,0.005,0.018,-0.035,106.0,104.0,103.0,13.4,1505.2,321.5,-0.8,1.8,2471.253,13.29,0.018,15.5
2023-02-27T03:25:03,42.805,6.029,0.005,0.007,-0.01,105.0,105.0,101.0,13.3,1505.2,322.6,-0.8,1.8,2471.236,13.29,0.008,35.5
2023-02-27T03:28:03,42.805,6.029,-0.022,-0.002,-0.06,104.0,105.0,104.0,13.3,1505.2,323.8,-0.7,1.8,2471.192,13.29,0.022,264.8
2023-02-27T03:31:03,42.805,6.029,-0.027,0.024,-0.01,106.0,106.0,103.0,13.4,1505.2,332.3,-0.7,1.8,2471.222,13.29,0.036,311.6
2023-02-27T03:34:03,42.805,6.029,-0.028,0.008,0.0,104.0,105.0,104.0,13.4,1505.2,317.9,-0.8,1.8,2471.242,13.29,0.029,285.9
2023-02-27T03:37:03,42.805,6.029,-0.036,0.024,0.002,105.0,106.0,104.0,13.3,1505.2,325.7,-0.8,1.8,2471.221,13.29,0.043,303.7
2023-02-27T03:40:03,42.805,6.029,-0.019,0.009,-0.027,105.0,103.0,103.0,13.3,1505.2,333.0,-0.8,1.8,2471.182,13.29,0.021,295.3
2023-02-27T03:43:03,42.805,6.029,-0.009,0.007,-0.01,105.0,105.0,103.0,13.3,1505.2,338.9,-0.7,1.8,2471.226,13.29,0.011,307.9
2023-02-27T03:46:03,42.805,6.029,-0.004,0.002,-0.028,104.0,104.0,103.0,13.3,1505.2,319.4,-0.8,1.8,2471.204,13.29,0.004,296.6
2023-02-27T03:49:03,42.805,6.029,-0.028,0.023,0.0,105.0,105.0,104.0,13.3,1505.2,320.1,-0.8,1.8,2471.19,13.29,0.036,309.4
2023-02-27T03:52:03,42.805,6.029,-0.027,0.002,-0.022,105.0,105.0,103.0,13.4,1505.2,320.9,-0.8,1.8,2471.218,13.29,0.027,274.2
2023-02-27T03:55:03,42.805,6.029,-0.017,-0.005,-0.039,106.0,106.0,102.0,13.3,1505.2,322.6,-0.8,1.8,2471.204,13.29,0.017,253.6
2023-02-27T03:58:03,42.805,6.029,-0.008,0.01,-0.033,106.0,105.0,103.0,13.4,1505.2,330.3,-0.8,1.8,2471.203,13.29,0.012,321.3
2023-02-27T04:04:03,42.805,6.029,-0.035,0.015,-0.017,105.0,104.0,103.0,13.4,1505.2,335.0,-0.8,1.8,2471.248,13.29,0.038,293.2
2023-02-27T04:07:03,42.805,6.029,-0.007,0.0,-0.026,106.0,105.0,105.0,13.4,1505.2,327.2,-0.8,1.8,2471.251,13.29,0.007,270.0
2023-02-27T04:10:03,42.805,6.029,-0.036,0.02,0.012,105.0,105.0,103.0,13.3,1505.2,321.0,-0.8,1.8,2471.251,13.29,0.041,299.1
2023-02-27T04:13:03,42.805,6.029,-0.015,0.008,-0.057,105.0,105.0,103.0,13.4,1505.2,328.8,-0.7,1.8,2471.255,13.29,0.017,298.1
2023-02-27T04:16:03,42.805,6.029,-0.019,0.002,-0.044,106.0,104.0,104.0,13.4,1505.2,324.3,-0.8,1.8,2471.235,13.29,0.019,276.0
2023-02-27T04:19:03,42.805,6.029,-0.006,0.003,-0.033,105.0,106.0,104.0,13.4,1505.2,324.9,-0.8,1.8,2471.175,13.29,0.006,296.6
2023-02-27T04:22:03,42.805,6.029,-0.029,0.007,-0.013,106.0,105.0,104.0,13.3,1505.2,338.2,-0.8,1.8,2471.2,13.29,0.029,283.6
2023-02-27T04:25:03,42.805,6.029,-0.03,0.014,-0.04,105.0,104.0,103.0,13.3,1505.2,332.6,-0.8,1.8,2471.179,13.29,0.033,295.0
2023-02-27T04:28:03,42.805,6.029,0.006,0.015,-0.01,106.0,105.0,103.0,13.3,1505.2,338.5,-0.7,1.8,2471.219,13.29,0.016,21.8
2023-02-27T04:31:03,42.805,6.029,-0.014,0.0,-0.025,106.0,105.0,103.0,13.4,1505.2,320.6,-0.8,1.8,2471.201,13.29,0.014,270.0
2023-02-27T04:34:03,42.805,6.029,-0.006,0.005,-0.018,104.0,105.0,103.0,13.4,1505.2,325.4,-0.8,1.8,2471.207,13.29,0.007,309.8
2023-02-27T04:37:03,42.805,6.029,-0.012,0.0,-0.02,105.0,105.0,104.0,13.4,1505.2,318.9,-0.8,1.8,2471.227,13.29,0.012,270.0
2023-02-27T04:40:03,42.805,6.029,-0.023,-0.002,-0.037,105.0,105.0,102.0,13.3,1505.2,329.3,-0.8,1.8,2471.178,13.29,0.023,265.0
2023-02-27T04:43:03,42.805,6.029,-0.039,0.006,-0.043,104.0,103.0,103.0,13.4,1505.2,331.2,-0.8,1.8,2471.234,13.29,0.039,278.7
2023-02-27T04:46:03,42.805,6.029,-0.014,0.005,-0.013,105.0,105.0,103.0,13.3,1505.2,320.7,-0.7,1.8,2471.176,13.29,0.014,289.6
2023-02-27T04:49:03,42.805,6.029,-0.02,0.011,-0.005,105.0,105.0,104.0,13.3,1505.2,333.8,-0.8,1.8,2471.176,13.29,0.022,298.8
2023-02-27T04:52:03,42.805,6.029,0.003,0.0,-0.045,106.0,105.0,105.0,13.4,1505.2,317.5,-0.8,1.8,2471.176,13.29,0.003,90.0
2023-02-27T04:55:03,42.805,6.029,-0.017,-0.013,-0.016,106.0,105.0,103.0,13.4,1505.2,333.8,-0.8,1.8,2471.178,13.29,0.021,232.6
2023-02-27T04:58:03,42.805,6.029,-0.03,0.008,-0.012,105.0,104.0,104.0,13.4,1505.2,325.2,-0.7,1.8,2471.185,13.29,0.031,284.9
2023-02-27T05:04:03,42.805,6.029,-0.023,0.018,0.003,104.0,104.0,103.0,13.4,1505.2,325.7,-0.7,1.8,2471.215,13.29,0.029,308.0
2023-02-27T05:07:03,42.805,6.029,-0.018,0.007,0.008,106.0,106.0,103.0,13.4,1505.2,340.9,-0.8,1.8,2471.256,13.29,0.019,291.2
2023-02-27T05:10:03,42.805,6.029,0.0,-0.001,-0.004,106.0,106.0,103.0,13.4,1505.2,318.5,-0.7,1.8,2471.213,13.29,0.001,180.0
2023-02-27T05:13:03,42.805,6.029,-0.002,0.003,-0.027,106.0,104.0,103.0,13.4,1505.2,327.1,-0.7,1.8,2471.206,13.29,0.003,326.3
2023-02-27T05:16:03,42.805,6.029,-0.017,0.006,-0.02,105.0,104.0,103.0,13.3,1505.2,320.7,-0.7,1.8,2471.22,13.29,0.018,289.4
2023-02-27T05:19:03,42.805,6.029,-0.009,0.015,0.017,104.0,104.0,103.0,13.4,1505.2,318.8,-0.8,1.8,2471.18,13.29,0.017,329.0
2023-02-27T05:22:03,42.805,6.029,-0.026,0.013,-0.015,106.0,107.0,104.0,13.3,1505.2,316.6,-0.7,1.9,2471.165,13.29,0.029,296.6
2023-02-27T05:25:03,42.805,6.029,-0.025,0.016,-0.006,105.0,104.0,103.0,13.4,1505.2,324.1,-0.7,1.8,2471.223,13.29,0.029,302.6
2023-02-27T05:28:03,42.805,6.029,-0.017,0.004,-0.047,105.0,105.0,103.0,13.4,1505.2,332.6,-0.7,1.8,2471.199,13.29,0.017,283.2
2023-02-27T05:31:03,42.805,6.029,-0.013,0.011,-0.031,106.0,103.0,103.0,13.3,1505.2,327.5,-0.8,1.8,2471.171,13.29,0.017,310.2
2023-02-27T05:34:03,42.805,6.029,-0.032,0.028,-0.013,104.0,105.0,102.0,13.3,1505.2,319.8,-0.8,1.8,2471.188,13.29,0.042,311.2
2023-02-27T05:37:03,42.805,6.029,-0.025,0.013,-0.023,105.0,105.0,103.0,13.3,1505.2,334.7,-0.7,1.8,2471.158,13.29,0.028,297.5
2023-02-27T05:40:03,42.805,6.029,-0.049,0.003,-0.03,107.0,105.0,103.0,13.3,1505.2,320.4,-0.7,1.8,2471.162,13.29,0.049,273.5
2023-02-27T05:43:03,42.805,6.029,-0.031,0.027,-0.049,105.0,103.0,103.0,13.4,1505.2,332.3,-0.8,1.8,2471.174,13.29,0.041,311.1
2023-02-27T05:46:03,42.805,6.029,-0.022,0.018,-0.02,105.0,104.0,103.0,13.4,1505.2,337.0,-0.8,1.8,2471.177,13.29,0.028,309.3
2023-02-27T05:49:03,42.805,6.029,0.002,0.017,0.004,104.0,104.0,103.0,13.4,1505.2,338.0,-0.8,1.8,2471.177,13.29,0.017,6.7
2023-02-27T05:52:03,42.805,6.029,-0.018,0.018,-0.032,103.0,104.0,104.0,13.4,1505.2,329.0,-0.7,1.8,2471.163,13.29,0.025,315.0
2023-02-27T05:55:03,42.805,6.029,-0.013,0.023,-0.039,103.0,103.0,102.0,13.4,1505.2,328.8,-0.8,1.8,2471.166,13.29,0.026,330.5
2023-02-27T05:58:03,42.805,6.029,-0.035,0.017,-0.035,104.0,103.0,102.0,13.4,1505.2,327.3,-0.7,1.8,2471.202,13.29,0.038,295.9
2023-02-27T06:04:03,42.805,6.029,-0.029,0.015,0.0,105.0,103.0,103.0,13.4,1505.2,332.1,-0.7,1.8,2471.252,13.29,0.032,297.4
2023-02-27T06:07:03,42.805,6.029,-0.027,0.003,-0.038,104.0,105.0,104.0,13.4,1505.2,330.3,-0.7,1.8,2471.246,13.29,0.027,276.3
2023-02-27T06:10:03,42.805,6.029,-0.014,0.002,-0.038,105.0,105.0,103.0,13.3,1505.2,316.6,-0.7,1.8,2471.204,13.29,0.014,278.1
2023-02-27T06:13:03,42.805,6.029,-0.049,0.009,-0.013,105.0,104.0,104.0,13.4,1505.2,320.0,-0.8,1.8,2471.191,13.29,0.049,280.4
2023-02-27T06:16:03,42.805,6.029,-0.019,-0.003,-0.02,107.0,105.0,103.0,13.4,1505.2,322.1,-0.7,1.8,2471.216,13.29,0.019,261.0
2023-02-27T06:19:03,42.805,6.029,-0.015,-0.004,0.004,103.0,105.0,104.0,13.4,1505.2,332.9,-0.7,1.8,2471.194,13.29,0.015,255.1
2023-02-27T06:22:03,42.805,6.029,-0.012,0.001,-0.035,104.0,104.0,104.0,13.4,1505.2,323.6,-0.8,1.8,2471.185,13.29,0.012,274.8
2023-02-27T06:25:03,42.805,6.029,-0.021,0.019,-0.026,104.0,104.0,104.0,13.4,1505.2,324.5,-0.8,1.8,2471.185,13.29,0.028,312.1
2023-02-27T06:28:03,42.805,6.029,-0.004,-0.003,0.003,104.0,104.0,103.0,13.4,1505.2,332.9,-0.8,1.8,2471.178,13.29,0.005,233.1
2023-02-27T06:31:03,42.805,6.029,-0.01,-0.015,-0.013,105.0,103.0,103.0,13.4,1505.2,322.1,-0.8,1.8,2471.176,13.29,0.018,213.7
2023-02-27T06:34:03,42.805,6.029,-0.012,0.0,-0.024,105.0,105.0,103.0,13.4,1505.2,325.3,-0.8,1.8,2471.191,13.29,0.012,270.0
2023-02-27T06:37:03,42.805,6.029,-0.047,-0.018,-0.01,105.0,105.0,104.0,13.4,1505.2,325.1,-0.8,1.9,2471.148,13.29,0.05,249.0
2023-02-27T06:40:03,42.805,6.029,-0.023,0.015,-0.019,105.0,104.0,104.0,13.4,1505.2,331.6,-0.7,1.8,2471.158,13.29,0.027,303.1
2023-02-27T06:43:03,42.805,6.029,-0.029,0.017,-0.029,106.0,106.0,104.0,13.4,1505.2,337.6,-0.8,1.8,2471.176,13.29,0.033,300.4
2023-02-27T06:46:03,42.805,6.029,-0.035,0.007,-0.012,104.0,104.0,103.0,13.3,1505.2,322.7,-0.8,1.8,2471.207,13.29,0.035,281.3
2023-02-27T06:49:03,42.805,6.029,-0.033,0.024,-0.015,104.0,104.0,103.0,13.3,1505.2,336.2,-0.7,1.8,2471.186,13.29,0.04,306.0
2023-02-27T06:52:03,42.805,6.029,-0.024,-0.004,-0.01,104.0,103.0,104.0,13.4,1505.2,317.1,-0.8,1.8,2471.181,13.29,0.024,260.5
2023-02-27T06:55:03,42.805,6.029,-0.014,0.008,-0.005,105.0,104.0,103.0,13.4,1505.2,320.3,-0.8,1.8,2471.175,13.29,0.016,299.7
2023-02-27T06:58:03,42.805,6.029,-0.033,0.009,-0.017,104.0,104.0,103.0,13.4,1505.2,330.4,-0.8,1.8,2471.156,13.29,0.034,285.3
2023-02-27T07:04:03,42.805,6.029,-0.032,0.014,-0.038,105.0,105.0,102.0,13.3,1505.2,322.2,-0.8,1.8,2471.185,13.29,0.034,293.6
2023-02-27T07:07:03,42.805,6.029,-0.04,0.006,-0.037,105.0,103.0,103.0,13.4,1505.2,320.4,-0.8,1.8,2471.2,13.29,0.04,278.5
2023-02-27T07:10:03,42.805,6.029,0.0,-0.002,-0.03,106.0,105.0,102.0,13.4,1505.2,325.2,-0.8,1.8,2471.192,13.29,0.002,180.0
2023-02-27T07:13:03,42.805,6.029,-0.02,0.002,-0.024,105.0,105.0,102.0,13.4,1505.2,328.6,-0.8,1.8,2471.236,13.29,0.02,275.7
2023-02-27T07:16:03,42.805,6.029,-0.012,0.012,-0.033,105.0,105.0,102.0,13.4,1505.2,337.4,-0.8,1.8,2471.205,13.29,0.016,315.0
2023-02-27T07:19:03,42.805,6.029,-0.017,-0.005,-0.002,110.0,103.0,104.0,13.4,1505.2,314.4,-0.8,1.8,2471.215,13.29,0.017,253.6
2023-02-27T07:22:03,42.805,6.029,-0.047,0.024,-0.025,104.0,102.0,104.0,13.3,1505.2,316.1,-0.8,1.8,2471.169,13.29,0.052,297.0
2023-02-27T07:25:03,42.805,6.029,-0.024,0.013,-0.023,104.0,103.0,102.0,13.4,1505.2,326.5,-0.8,1.8,2471.136,13.29,0.027,298.4
2023-02-27T07:28:03,42.805,6.029,-0.013,0.017,-0.005,104.0,106.0,103.0,13.4,1505.2,322.1,-0.7,1.8,2471.155,13.29,0.021,322.6
2023-02-27T07:31:03,42.805,6.029,-0.035,-0.004,-0.022,104.0,104.0,102.0,13.4,1505.2,314.4,-0.7,1.8,2471.174,13.29,0.035,263.5
2023-02-27T07:34:03,42.805,6.029,-0.013,-0.004,-0.032,105.0,103.0,103.0,13.3,1505.2,324.1,-0.8,1.8,2471.163,13.29,0.013,252.9
2023-02-27T07:37:03,42.805,6.029,-0.027,0.019,-0.015,105.0,103.0,103.0,13.3,1505.2,332.5,-0.7,1.8,2471.144,13.29,0.033,305.1
2023-02-27T07:40:03,42.805,6.029,-0.035,0.006,-0.046,104.0,104.0,104.0,13.4,1505.2,321.6,-0.7,1.8,2471.203,13.29,0.035,279.7
2023-02-27T07:43:03,42.805,6.029,-0.023,-0.013,-0.023,104.0,103.0,104.0,13.4,1505.2,325.3,-0.7,1.8,2471.195,13.29,0.026,240.5
2023-02-27T07:46:03,42.805,6.029,-0.037,0.007,-0.027,105.0,104.0,103.0,13.4,1505.2,331.6,-0.8,1.8,2471.149,13.29,0.037,280.7
2023-02-27T07:49:02,42.805,6.029,-0.036,0.002,-0.022,105.0,104.0,104.0,13.3,1505.2,334.3,-0.8,1.8,2471.165,13.29,0.036,273.2
2023-02-27T07:52:03,42.805,6.029,-0.029,0.011,-0.027,104.0,105.0,103.0,13.4,1505.2,324.6,-0.8,1.8,2471.198,13.29,0.031,290.8
2023-02-27T07:55:03,42.805,6.029,-0.033,0.013,-0.016,105.0,104.0,102.0,13.3,1505.2,330.3,-0.8,1.8,2471.151,13.29,0.035,291.5
2023-02-27T07:58:02,42.805,6.029,-0.007,0.005,-0.019,105.0,104.0,102.0,13.4,1505.2,329.0,-0.7,1.8,2471.192,13.29,0.008,305.5
2023-02-27T08:04:02,42.805,6.029,-0.017,0.0,-0.05,104.0,104.0,104.0,13.3,1505.2,328.8,-0.8,1.8,2471.218,13.28,0.017,270.0
2023-02-27T08:07:02,42.805,6.029,-0.02,0.011,-0.035,104.0,104.0,102.0,13.4,1505.2,330.8,-0.8,1.8,2471.217,13.29,0.022,298.8
2023-02-27T08:10:02,42.805,6.029,-0.037,0.004,-0.014,104.0,103.0,103.0,13.4,1505.2,321.6,-0.8,1.8,2471.173,13.29,0.037,276.2
2023-02-27T08:13:02,42.805,6.029,-0.031,0.024,0.001,104.0,104.0,102.0,13.3,1505.2,331.3,-0.8,1.8,2471.205,13.29,0.039,307.7
2023-02-27T08:16:03,42.805,6.029,-0.037,-0.003,-0.016,105.0,104.0,103.0,13.4,1505.2,326.0,-0.8,1.8,2471.175,13.29,0.037,265.4
2023-02-27T08:19:02,42.805,6.029,-0.028,0.019,-0.037,105.0,105.0,103.0,13.3,1505.2,328.2,-0.8,1.8,2471.214,13.29,0.033,304.2
2023-02-27T08:22:02,42.805,6.029,-0.017,0.009,-0.033,103.0,103.0,104.0,13.4,1505.2,321.0,-0.8,1.8,2471.203,13.29,0.019,297.9
2023-02-27T08:25:03,42.805,6.029,-0.005,0.021,0.006,104.0,104.0,102.0,13.4,1505.2,321.3,-0.7,1.8,2471.202,13.29,0.021,346.6
2023-02-27T08:28:03,42.805,6.029,-0.016,0.017,-0.04,104.0,103.0,104.0,13.4,1505.2,338.3,-0.8,1.8,2471.187,13.29,0.023,316.7
2023-02-27T08:31:03,42.805,6.029,-0.027,0.001,-0.023,104.0,105.0,103.0,13.4,1505.2,340.9,-0.8,1.8,2471.195,13.29,0.027,272.1
2023-02-27T08:34:03,42.805,6.029,-0.037,0.009,-0.027,103.0,105.0,102.0,13.3,1505.2,340.3,-0.7,1.8,2471.185,13.29,0.038,283.7
2023-02-27T08:37:02,42.805,6.029,-0.008,0.006,-0.029,103.0,103.0,102.0,13.3,1505.2,328.3,-0.8,1.8,2471.153,13.29,0.01,306.9
2023-02-27T08:40:03,42.805,6.029,-0.017,0.023,-0.031,104.0,104.0,103.0,13.4,1505.2,338.0,-0.7,1.8,2471.18,13.29,0.028,323.5
2023-02-27T08:43:03,42.805,6.029,-0.018,0.009,-0.024,104.0,104.0,103.0,13.3,1505.2,317.7,-0.8,1.8,2471.21,13.29,0.02,296.6
2023-02-27T08:46:03,42.805,6.029,-0.04,0.013,-0.026,104.0,103.0,102.0,13.4,1505.2,328.5,-0.8,1.8,2471.191,13.29,0.042,288.0
2023-02-27T08:49:03,42.805,6.029,-0.007,-0.003,-0.031,103.0,103.0,102.0,13.4,1505.2,321.1,-0.8,1.8,2471.212,13.29,0.007,246.8
2023-02-27T08:52:02,42.805,6.029,-0.005,0.021,-0.001,103.0,103.0,103.0,13.3,1505.2,322.9,-0.7,1.9,2471.178,13.29,0.021,346.6
2023-02-27T08:55:03,42.805,6.029,-0.009,-0.001,-0.032,105.0,104.0,102.0,13.4,1505.2,319.3,-0.7,1.8,2471.181,13.29,0.009,263.7
2023-02-27T08:58:03,42.805,6.029,-0.028,-0.003,-0.021,106.0,103.0,102.0,13.3,1505.2,328.7,-0.8,1.8,2471.2,13.29,0.028,263.9
2023-02-27T09:04:02,42.805,6.029,-0.032,0.021,-0.042,104.0,103.0,103.0,13.3,1505.2,320.6,-0.8,1.8,2471.262,13.28,0.038,303.3
2023-02-27T09:07:03,42.805,6.029,-0.02,0.0,0.009,104.0,103.0,102.0,13.4,1505.2,316.0,-0.8,1.8,2471.296,13.29,0.02,270.0
2023-02-27T09:10:03,42.805,6.029,-0.068,0.022,-0.008,105.0,105.0,102.0,13.4,1505.2,315.0,-0.8,1.8,2471.211,13.29,0.071,287.9
2023-02-27T09:13:03,42.805,6.029,-0.023,0.03,-0.041,105.0,102.0,103.0,13.4,1505.2,332.5,-0.8,1.8,2471.241,13.29,0.037,322.5
2023-02-27T09:16:03,42.805,6.029,-0.021,0.022,-0.017,105.0,104.0,104.0,13.4,1505.2,333.8,-0.8,1.8,2471.192,13.29,0.03,316.3
2023-02-27T09:19:03,42.805,6.029,-0.035,0.016,-0.051,102.0,104.0,103.0,13.3,1505.2,329.3,-0.8,1.8,2471.248,13.29,0.038,294.6
2023-02-27T09:22:03,42.805,6.029,-0.031,0.017,-0.019,105.0,104.0,103.0,13.4,1505.2,329.6,-0.8,1.8,2471.213,13.29,0.035,298.7
2023-02-27T09:25:03,42.805,6.029,-0.006,0.015,-0.027,104.0,104.0,102.0,13.3,1505.2,329.7,-0.7,1.8,2471.239,13.29,0.016,338.2
2023-02-27T09:28:03,42.805,6.029,-0.015,0.009,-0.034,104.0,104.0,103.0,13.4,1505.2,329.3,-0.8,1.8,2471.241,13.29,0.017,301.0
2023-02-27T09:31:03,42.805,6.029,-0.041,0.009,-0.034,104.0,104.0,103.0,13.4,1505.2,321.7,-0.7,1.8,2471.209,13.29,0.041,282.4
2023-02-27T09:34:03,42.805,6.029,-0.03,0.017,-0.017,104.0,104.0,103.0,13.3,1505.2,324.4,-0.7,1.8,2471.196,13.29,0.034,299.5
2023-02-27T09:37:03,42.805,6.029,-0.024,-0.011,-0.031,105.0,102.0,103.0,13.4,1505.2,317.9,-0.8,1.8,2471.217,13.29,0.026,245.4
2023-02-27T09:40:03,42.805,6.029,-0.022,0.027,-0.022,104.0,104.0,102.0,13.4,1505.2,327.0,-0.8,1.8,2471.24,13.29,0.034,320.8
2023-02-27T09:43:03,42.805,6.029,-0.026,0.002,-0.024,104.0,104.0,103.0,13.4,1505.2,323.1,-0.7,1.8,2471.193,13.29,0.026,274.4
2023-02-27T09:46:03,42.805,6.029,-0.03,-0.004,-0.046,103.0,103.0,103.0,13.3,1505.2,335.4,-0.7,1.8,2471.204,13.29,0.03,262.4
2023-02-27T09:49:03,42.805,6.029,-0.037,-0.003,-0.022,104.0,103.0,102.0,13.4,1505.2,330.2,-0.7,1.8,2471.238,13.29,0.037,265.4
2023-02-27T09:52:03,42.805,6.029,-0.044,0.024,0.005,104.0,103.0,103.0,13.3,1505.2,331.9,-0.8,1.8,2471.238,13.29,0.05,298.6